(169482) = 2002 CL144

Discovered at Socorro on 2002-02-09 by LINEAR.

Orbit

Orbit type: Main Belt

Note: WebGL enabled browser required.

epoch2023-09-13.0
epoch JD2460200.5
perihelion date2020-12-04.32046
perihelion JD2459187.82046
argument of perihelion (°)102.37570
ascending node (°)318.27118
inclination (°)4.10430
eccentricity0.0835262
perihelion distance (AU)2.0144649
Tisserand w.r.t. Jupiter3.7
ΔV w.r.t. Earth (km/sec)8.8
semimajor axis (AU)2.1980605
mean anomaly (°)306.27843
mean daily motion (°/day)0.30244360
aphelion distance (AU)2.382
period (years)3.26
P-vector [x]0.48852333
P-vector [y]0.77016786
P-vector [z]0.41010538
Q-vector [x]-0.87124939
Q-vector [y]0.45621917
Q-vector [z]0.18107615
absolute magnitude16.91
phase slope0.15
uncertainty0
referenceMPEC 2024-B20
observations used705
oppositions16
arc length (days)11674
first opposition used1992
last opposition used2024
residual rms (arc-secs)0.69
perturbers coarse indicatorM-v
perturbers precise indicator003Ek
first observation date used1992-01-30.0
last observation date used2024-01-16.0
computer nameMPCLINUX
JD of orbit computation2456612.700414
perihelion JD uncertainty (days)1.7250E-04
argument of perihelion uncertainty (°)8.8166E-05
ascending node uncertainty (°)7.1000E-05
inclination uncertainty (°)6.3645E-06
eccentricity uncertainty 6.3530E-08
perihelion distance uncertainty (AU)1.4841E-07
Minimum Orbit Intersection Distances (in AU)
for orbit epoch: 2460200.5, reference: E2024-B20
Mercury1.70365
Venus1.2969
Earth1.03074
Mars0.45419
Jupiter2.82593
Saturn7.01073
Uranus16.1947
Neptune27.7912

Observations

715 total observations over interval: 1992 01 30.12303 – 2024 01 16.168925
These data are available for download (format description).

Date (UT) J2000 RA J2000 Dec Magn Location Ref
1992 01 30.12303 07 54 36.13 +23 00 05.0   691 – Steward Observatory, Kitt Peak-Spacewatch MPS 175515
1992 01 30.15206 07 54 34.03 +23 00 05.8 20.1 V 691 – Steward Observatory, Kitt Peak-Spacewatch MPS 175515
1992 01 30.17798 07 54 32.27 +23 00 06.5   691 – Steward Observatory, Kitt Peak-Spacewatch MPS 175515
2000 07 29.31302 22 31 56.97 -08 36 31.9 19.3 R 807 – Cerro Tololo Observatory, La Serena MPS 52712
2000 07 29.42109 22 31 52.68 -08 36 38.8   807 – Cerro Tololo Observatory, La Serena MPS 52712
2000 08 21.26516 22 11 38.69 -09 31 57.2 19.0 R 699 – Lowell Observatory-LONEOS MPS 52712
2000 08 21.28560 22 11 37.41 -09 32 01.4   699 – Lowell Observatory-LONEOS MPS 52712
2000 08 21.30604 22 11 36.04 -09 32 05.3   699 – Lowell Observatory-LONEOS MPS 52712
2000 08 21.32649 22 11 34.61 -09 32 08.3   699 – Lowell Observatory-LONEOS MPS 52712
2002 02 09.37616 10 45 26.01 +06 06 36.7 19.5   704 – Lincoln Laboratory ETS, New Mexico MPS 50324
2002 02 09.39072 10 45 25.01 +06 06 38.8 19.7   704 – Lincoln Laboratory ETS, New Mexico MPS 50324
2002 02 09.41977 10 45 23.45 +06 06 44.0 19.7   704 – Lincoln Laboratory ETS, New Mexico MPS 50324
2002 02 09.43424 10 45 22.49 +06 06 45.2 19.8   704 – Lincoln Laboratory ETS, New Mexico MPS 50324
2002 02 11.37420 10 43 31.62 +06 12 36.4 19.5   704 – Lincoln Laboratory ETS, New Mexico MPS 50324
2002 02 11.40313 10 43 29.87 +06 12 42.2 20.0   704 – Lincoln Laboratory ETS, New Mexico MPS 50324
2002 02 11.41749 10 43 28.98 +06 12 45.5 19.7   704 – Lincoln Laboratory ETS, New Mexico MPS 50324
2002 02 11.43188 10 43 28.12 +06 12 48.3 19.5   704 – Lincoln Laboratory ETS, New Mexico MPS 50324
2002 02 14.41408 10 40 29.30 +06 22 37.9 20.3 V 291 – LPL/Spacewatch II MPS 52712
2002 02 14.43498 10 40 27.97 +06 22 42.4 20.3 V 291 – LPL/Spacewatch II MPS 52712
2002 02 14.45541 10 40 26.69 +06 22 46.8 20.3 V 291 – LPL/Spacewatch II MPS 52712
2002 02 16.34929 10 38 29.12 +06 29 28.9 19.4   644 – Palomar Mountain/NEAT MPS 55517
2002 02 16.42874 10 38 23.93 +06 29 46.1 19.7   644 – Palomar Mountain/NEAT MPS 55517
2002 02 16.49091 10 38 19.88 +06 29 59.4 19.7   644 – Palomar Mountain/NEAT MPS 55517
2002 02 20.26031 10 34 18.64 +06 44 12.5 18.9   704 – Lincoln Laboratory ETS, New Mexico MPS 55517
2002 02 20.27443 10 34 17.67 +06 44 15.2 19.1   704 – Lincoln Laboratory ETS, New Mexico MPS 55517
2002 02 20.30242 10 34 15.79 +06 44 22.4 19.2   704 – Lincoln Laboratory ETS, New Mexico MPS 55517
2002 02 21.31556 10 33 09.77 +06 48 19.4 18.5   704 – Lincoln Laboratory ETS, New Mexico MPS 52712
2002 02 21.32989 10 33 08.81 +06 48 23.3 19.5   704 – Lincoln Laboratory ETS, New Mexico MPS 52712
2002 02 21.34421 10 33 07.80 +06 48 27.1 19.1   704 – Lincoln Laboratory ETS, New Mexico MPS 52712
2002 02 21.35858 10 33 06.86 +06 48 30.5 19.3   704 – Lincoln Laboratory ETS, New Mexico MPS 52712
2002 02 21.37313 10 33 05.89 +06 48 33.6 18.8   704 – Lincoln Laboratory ETS, New Mexico MPS 52712
2002 02 25.20742 10 28 55.17 +07 03 53.5 20.0   644 – Palomar Mountain/NEAT MPS 55517
2002 02 25.21799 10 28 54.45 +07 03 55.5 19.7   644 – Palomar Mountain/NEAT MPS 55517
2002 02 25.22856 10 28 53.74 +07 03 59.2 19.9   644 – Palomar Mountain/NEAT MPS 55517
2002 03 05.198140 10 20 23.109 +07 35 58.55 19.67 V 645 – Apache Point-Sloan Digital Sky Survey MPS 80064
2002 03 05.201612 10 20 22.891 +07 35 59.40 20.55   645 – Apache Point-Sloan Digital Sky Survey MPS 80064
2002 03 05.37455 10 20 11.94 +07 36 39.9 18.8   644 – Palomar Mountain/NEAT MPS 55517
2002 03 05.38497 10 20 11.28 +07 36 42.1 19.0   644 – Palomar Mountain/NEAT MPS 55517
2002 03 05.39553 10 20 10.60 +07 36 44.5 19.0   644 – Palomar Mountain/NEAT MPS 55517
2002 03 12.24812 10 13 32.91 +08 02 05.7 19.6   704 – Lincoln Laboratory ETS, New Mexico MPS 55517
2002 03 12.26683 10 13 31.78 +08 02 09.9 19.8   704 – Lincoln Laboratory ETS, New Mexico MPS 55517
2002 03 12.28538 10 13 30.78 +08 02 13.8 19.7   704 – Lincoln Laboratory ETS, New Mexico MPS 55517
2002 03 13.21114 10 12 41.61 +08 05 22.8 19.5   704 – Lincoln Laboratory ETS, New Mexico MPS 55517
2002 03 13.22465 10 12 40.87 +08 05 26.1 19.9   704 – Lincoln Laboratory ETS, New Mexico MPS 55517
2002 03 13.23821 10 12 40.13 +08 05 28.7 19.4   704 – Lincoln Laboratory ETS, New Mexico MPS 55517
2002 03 13.25176 10 12 39.43 +08 05 32.0 19.8   704 – Lincoln Laboratory ETS, New Mexico MPS 55517
2002 03 14.23887 10 11 48.23 +08 08 46.6 19.3   704 – Lincoln Laboratory ETS, New Mexico MPS 52712
2002 03 14.25262 10 11 47.51 +08 08 49.2 19.9   704 – Lincoln Laboratory ETS, New Mexico MPS 52712
2002 03 14.26626 10 11 46.77 +08 08 52.5 19.4   704 – Lincoln Laboratory ETS, New Mexico MPS 52712
2002 03 14.28047 10 11 45.97 +08 08 55.3 19.1   704 – Lincoln Laboratory ETS, New Mexico MPS 52712
2002 03 14.29475 10 11 45.22 +08 08 58.9 19.6   704 – Lincoln Laboratory ETS, New Mexico MPS 52712
2004 12 14.01784 08 08 25.64 +24 28 59.8 19.1 R 599 – Campo Imperatore-CINEOS MPS 121700
2004 12 14.02943 08 08 25.23 +24 29 00.4 19.2 R 599 – Campo Imperatore-CINEOS MPS 121700
2004 12 14.04101 08 08 24.83 +24 29 01.2 19.2 R 599 – Campo Imperatore-CINEOS MPS 121700
2004 12 14.05264 08 08 24.45 +24 29 01.5 19.2 R 599 – Campo Imperatore-CINEOS MPS 121700
2004 12 15.00959 08 07 53.58 +24 29 52.2 19.3 R 599 – Campo Imperatore-CINEOS MPS 121700
2004 12 15.01953 08 07 53.19 +24 29 52.6 19.3 R 599 – Campo Imperatore-CINEOS MPS 121700
2004 12 15.02946 08 07 52.85 +24 29 53.2 19.4 R 599 – Campo Imperatore-CINEOS MPS 121700
2004 12 15.03939 08 07 52.47 +24 29 53.8 19.3 R 599 – Campo Imperatore-CINEOS MPS 121700
2004 12 15.31807 08 07 43.14 +24 30 09.9 19.6   704 – Lincoln Laboratory ETS, New Mexico MPS 121700
2004 12 15.33141 08 07 42.75 +24 30 11.6 19.7   704 – Lincoln Laboratory ETS, New Mexico MPS 121700
2004 12 15.34476 08 07 42.16 +24 30 11.2 20.1   704 – Lincoln Laboratory ETS, New Mexico MPS 121700
2004 12 15.35811 08 07 41.63 +24 30 13.6 19.4   704 – Lincoln Laboratory ETS, New Mexico MPS 121700
2004 12 15.37674 08 07 41.00 +24 30 12.9 19.8   704 – Lincoln Laboratory ETS, New Mexico MPS 121700
2004 12 21.35910 08 03 34.16 +24 36 31.8 18.8 R 703 – Catalina Sky Survey MPS 122673
2004 12 21.36973 08 03 33.60 +24 36 31.8 18.4 R 703 – Catalina Sky Survey MPS 122673
2004 12 21.38039 08 03 33.04 +24 36 32.1 18.7 R 703 – Catalina Sky Survey MPS 122673
2004 12 21.39112 08 03 32.48 +24 36 33.5 18.8 R 703 – Catalina Sky Survey MPS 122673
2005 01 01.40256 07 52 51.48 +24 49 14.1 18.8 R 703 – Catalina Sky Survey MPS 123484
2005 01 01.40898 07 52 51.09 +24 49 14.7 18.1 R 703 – Catalina Sky Survey MPS 123484
2005 01 01.41538 07 52 50.56 +24 49 14.6 19.1 R 703 – Catalina Sky Survey MPS 123484
2005 01 01.42183 07 52 50.04 +24 49 14.5 18.4 R 703 – Catalina Sky Survey MPS 123484
2005 01 07.29080 07 45 59.08 +24 54 29.1 19.5   704 – Lincoln Laboratory ETS, New Mexico MPS 124054
2005 01 07.30534 07 45 58.07 +24 54 29.7 20.0   704 – Lincoln Laboratory ETS, New Mexico MPS 124054
2005 01 07.31884 07 45 57.01 +24 54 30.7 19.6   704 – Lincoln Laboratory ETS, New Mexico MPS 124054
2005 01 07.33180 07 45 56.00 +24 54 31.0 19.4   704 – Lincoln Laboratory ETS, New Mexico MPS 124054
2005 01 12.38775 07 39 43.51 +24 57 07.5 19.0   704 – Lincoln Laboratory ETS, New Mexico MPS 124054
2005 01 12.40221 07 39 42.53 +24 57 07.0 19.2   704 – Lincoln Laboratory ETS, New Mexico MPS 124054
2005 01 12.41662 07 39 41.35 +24 57 06.3 19.3   704 – Lincoln Laboratory ETS, New Mexico MPS 124054
2005 01 15.28648 07 36 09.87 +24 57 37.2 19.4   704 – Lincoln Laboratory ETS, New Mexico MPS 124669
2005 01 15.29962 07 36 08.84 +24 57 37.9 19.2   704 – Lincoln Laboratory ETS, New Mexico MPS 124669
2005 01 15.31281 07 36 07.85 +24 57 38.4 19.6   704 – Lincoln Laboratory ETS, New Mexico MPS 124669
2005 01 15.32668 07 36 06.84 +24 57 37.9 19.7   704 – Lincoln Laboratory ETS, New Mexico MPS 124669
2005 01 15.34002 07 36 05.82 +24 57 39.1 19.3   704 – Lincoln Laboratory ETS, New Mexico MPS 124669
2005 01 17.28333 07 33 44.05 +24 57 31.0 19.0   704 – Lincoln Laboratory ETS, New Mexico MPS 124669
2005 01 17.29858 07 33 42.95 +24 57 30.8 19.1   704 – Lincoln Laboratory ETS, New Mexico MPS 124669
